Location: St. Louis
(38.6270°N, 90.1994°W)
Time: 08:10:58
(UTC-06:00)

Transit 2A - Pass Details

Date: 07 December 2021
Orbit: 591 x 967 km, 66.7° (Epoch: 20 January)

Event Time Altitude Azimuth Distance (km) Brightness Sun altitude
Rises 22:42:41 0° 204° (SSW) 3,238 - -68.2°
Reaches altitude 10° 22:44:58 10° 203° (SSW) 2,370 - -68.5°
Maximum altitude 22:50:28 82° 117° (ESE) 876 - -69.3°
Drops below altitude 10° 22:56:35 10° 30° (NNE) 2,619 - -70.1°
Sets 22:59:13 0° 30° (NNE) 3,602 - -70.4°
